Theta_e
315 314 313 310 310 310 310 311 312 311 311 312 310 312 313 311 311 311 310 310 309 309
314 314 313 310 310 311 311 310 312 311 311 310 310 311 312 312 311 310 309 310 306 305
314 314 313 310 310 311 312 312 311 310 312 310 310 310 312 312 313 310 308 308 306 304
313 312 312 310 310 310 311 311 311 310 309 309 308 309 310 312 311 312 307 307 306 305
311 311 310 309 310 310 311 311 310 310 308 309 307 308 308 310 310 310 310 308 306 308
309 309 309 310 311 311 310 309 309 308 308 308 308 307 308 309 309 309 309 310 307 305
307 308 309 310 311 311 310 308 308 309 308 308 308 308 308 308 309 309 309 309 309 307
307 308 310 310 311 311 310 308 308 308 308 309 308 307 308 308 307 308 307 307 305 305
308 308 309 310 309 309 308 308 307 307 307 307 307 295 300 306 309 308 306 305 306 305
307 307 308 308 307 306 306 307 306 306 307 306 307 299 299 297 309 308 307 307 306 304
306 306 307 307 306 306 306 305 305 306 306 306 306 298 298 296 307 308 308 309 307 306
305 306 305 305 305 305 305 305 305 305 305 305 305 297 296 297 303 303 304 307 308 306
303 304 304 304 304 303 305 303 303 300 305 299 305 297 296 297 302 301 299 299 302 291
299 300 302 303 300 298 300 295 296 294 297 301 301 303 296 296 301 301 299 297 294 298
Wind_Speed
13 9 10 12 9 7 7 7 10 8 7 9 8 7 7 5 3 5 4 6 3 4
13 13 11 12 10 8 10 9 11 10 9 8 8 7 8 6 6 6 4 5 5 5
12 12 11 11 12 11 10 11 11 11 10 9 9 8 7 7 6 7 5 5 7 5
12 13 12 11 11 11 10 10 11 11 9 9 10 9 8 7 8 7 8 6 6 7
13 13 13 11 11 12 11 11 11 11 10 10 9 9 9 8 8 9 9 9 6 8
11 13 13 12 12 12 11 11 11 11 11 10 10 10 10 10 10 9 10 10 9 7
11 11 13 13 12 11 11 11 10 10 10 11 10 10 10 10 10 10 10 9 9 9
11 10 12 12 11 11 12 11 11 11 10 11 11 9 10 10 9 9 9 8 7 6
11 11 12 10 10 10 10 10 11 11 11 11 8 11 13 11 10 10 10 9 8 8
11 10 12 10 10 10 10 9 10 11 11 11 11 13 14 13 9 9 10 10 9 8
12 11 10 11 10 10 9 10 9 10 10 10 9 15 16 15 12 9 11 11 10 11
8 10 10 10 10 9 9 9 9 9 10 10 9 15 16 14 11 8 10 10 9 11
5 8 9 9 9 8 8 9 8 8 10 10 12 13 16 16 9 10 7 7 10 12
5 6 8 8 6 6 7 6 7 8 7 9 11 10 16 20 11 9 8 7 5 6
Wind_Direction
181 173 180 181 173 169 168 168 164 175 167 172 157 176 168 152 154 160 171 151 140 132
180 179 171 175 176 169 166 183 173 174 165 164 158 175 171 157 160 155 152 170 131 126
179 183 169 170 178 174 170 177 173 169 177 167 165 169 192 170 161 157 152 152 138 136
177 186 183 178 175 178 167 173 180 169 173 171 166 167 177 187 164 171 150 145 149 153
178 186 188 183 175 183 177 175 183 177 173 173 169 171 175 191 178 173 173 170 179 168
170 187 190 189 180 177 174 172 175 177 177 179 177 178 186 189 186 183 179 180 183 176
170 190 192 191 184 174 176 171 179 185 183 186 180 187 186 192 195 192 191 177 188 174
168 188 204 192 183 177 181 177 177 180 193 187 189 185 191 192 193 194 196 181 185 179
171 190 196 182 176 180 184 182 179 184 184 191 200 178 185 195 194 197 195 195 195 192
194 192 193 183 172 183 185 182 189 189 191 194 194 183 195 195 201 195 202 199 198 195
206 194 192 186 181 185 184 189 191 194 198 199 198 184 197 199 204 204 211 211 202 201
202 198 187 192 188 186 186 189 195 196 198 205 205 186 191 189 207 211 212 217 210 206
194 201 190 193 192 186 190 194 192 193 202 202 211 194 191 188 202 213 209 200 217 213
198 198 192 189 177 171 183 176 182 189 196 201 211 212 198 193 204 210 211 210 208 218